This demonstration page uses our WeatherBlox Daily Observations layout. Learn more.

Left ArrowRight Arrow

39.29038, -76.61219

Hourly Observations for July 4, 2020

Temp ( °F °C ) Dew Point ( °F °C ) Humidity (%) Winds ( mph kmh ) Pressure ( in mb ) Visibility ( mi km ) Precip ( " mm )
12:54 am 00:54 Partly Cloudy 80 26.7 66 18.9 62 62 W 3 6 29.85 1011 10 16 0.00 0.00
1:54 am 01:54 Partly Cloudy 79 26.1 65 18.3 62 62 NW 3 6 29.85 1011 10 16 0.00 0.00
2:54 am 02:54 Mostly Clear 77 25 66 18.9 69 69 NW 3 6 29.86 1011 10 16 0.00 0.00
3:54 am 03:54 Clear 76 24.4 66 18.9 72 72 Calm 29.87 1011 10 16 0.00 0.00
4:54 am 04:54 Clear 73 22.8 66 18.9 79 79 Calm 29.86 1011 10 16 0.00 0.00
5:54 am 05:54 Sunny 72 22.2 66 18.9 82 82 Calm 29.88 1012 10 16 0.00 0.00
6:54 am 06:54 Sunny 76 24.4 68 20 77 77 Calm 29.89 1012 10 16 0.00 0.00
7:54 am 07:54 Mostly Sunny 80 26.7 68 20 67 67 N 7 11 29.91 1013 10 16 0.00 0.00
8:54 am 08:54 Mostly Sunny 82 27.8 68 20 63 63 ENE 10 17 29.92 1013 10 16 0.00 0.00
9:54 am 09:54 Partly Cloudy 83 28.3 69 20.6 63 63 VRB 6 9 29.92 1013 10 16 0.00 0.00
10:54 am 10:54 Partly Cloudy 84 28.9 70 21.1 63 63 E 6 9 29.92 1013 10 16 0.00 0.00
11:54 am 11:54 Partly Cloudy 86 30 71 21.7 61 61 VRB 7 11 29.93 1014 10 16 0.00 0.00
12:54 pm 12:54 Partly Cloudy 88 31.1 71 21.7 57 57 ESE 7 11 29.92 1013 10 16 0.00 0.00
1:54 pm 13:54 Partly Cloudy 89 31.7 70 21.1 53 53 E 8 13 29.91 1013 10 16 0.00 0.00
2:54 pm 14:54 Partly Cloudy 88 31.1 70 21.1 55 55 E 8 13 29.91 1013 10 16 0.00 0.00
3:54 pm 15:54 Mostly Cloudy 86 30 68 20 55 55 SSE 6 9 29.91 1013 10 16 0.00 0.00
4:54 pm 16:54 Partly Cloudy 88 31.1 66 18.9 48 48 ESE 8 13 29.90 1013 10 16 0.00 0.00
5:54 pm 17:54 Partly Cloudy 89 31.7 66 18.9 47 47 ESE 7 11 29.89 1012 10 16 0.00 0.00
6:54 pm 18:54 Mostly Cloudy 87 30.6 65 18.3 48 48 E 7 11 29.89 1012 10 16 0.00 0.00
7:54 pm 19:54 Mostly Cloudy 85 29.4 67 19.4 55 55 S 3 6 29.89 1012 10 16 0.00 0.00
8:54 pm 20:54 Mostly Cloudy 83 28.3 66 18.9 57 57 S 3 6 29.89 1012 10 16 0.00 0.00
9:54 pm 21:54 Clear 81 27.2 68 20 65 65 S 3 6 29.92 1013 8 13 0.00 0.00
10:54 pm 22:54 Hazy 77 25 69 20.6 77 77 Calm 29.92 1013 6 10 0.00 0.00
11:54 pm 23:54 Hazy 76 24.4 69 20.6 79 79 WSW 3 6 29.93 1014 4 6 0.00 0.00

Powered by AerisWeather